SCOUT B R/B, 1502

Orbit data source: Space-Track

SCOUT B R/B, 1502 is space debris in LEO originally from a launch on Tue, 10 Aug 1965 UTC via an SCOUT B launch vehicle from the Wallops Island (WLPIS). Debris objects in space refer to the collection of defunct objects orbiting the Earth. Examples of debris include non-operational satellites, rocket bodies, and fragments generated from explosions, collisions, or faulty payload assembly.

Loading next visibility...
Identifier
1502, 1965-063B
Orbit
LEO
Country
Flag of USUS
Related business
Manufacturer
NASA LaRC
Mission
Spacecraft
Bus & Motor
ESEC, Unknown motor
Mass
47 kg wet, 4 kg dry
Launch date (UTC)
1965-08-10 (60 years ago)
Launch vehicle
SCOUT B
Launch site
Wallops Island (WLPIS)
Object type
Payload
Rocket body
Debris
Shape & HBR
Unknown
Radar Cross Section
Medium (>0.1 m² and <1 m²)

Expand to show TLE details & history
Last TLE update: 7 hours ago

TLE from 7 hours ago
0 SCOUT B R/B
1  1502U 65063B   26037.12445955  .00000007  00000-0  29236-3 0  9993
2  1502  69.2316  92.1066 0786589 275.9687 103.5658 11.78598954602955
Epoch: 2026-02-06T02:59Z
TLE epoch observation values (Epoch: 2026-02-06T02:59:13.305Z)
Latitude
26.13779°
Longitude
-78.29074°
Altitude
1,977.201 km
Speed
6.826 km/s
True Right ascension
06h 51m 07s
True Declination
26° 01' 19"
Sunlit
Object was in full shadow at epoch
Visualization orbit readout
Latitude
Unknown
Longitude
Unknown
Altitude
Unknown
Speed
Unknown
Apparent Right ascension
Unknown
Apparent Declination
Unknown
Sunlit
N/A
Visualization observer readout
Local Sidereal Time
11:50:25
Azimuth
Unknown
Elevation
Unknown
Doppler factor
Unknown
Orbital elements
Apogee altitude
2,417.862 km
Perigee altitude
1,135.003 km
Semi-major axis
8,154.57 km
Eccentricity
0.07866
Inclination
69.2316°
RAAN
92.1066°
Arg. of periapsis
275.9687°
True anomaly
112.09873°
Mean anomaly
103.5658°
Eccentric anomaly
107.85554°
Mean motion
2.94742 °/min
Orbital period
122.14 mins
BSTAR
0.00029236
Loading maneuver chart data...
Computing Atmospheric mass density...
Loading historical data...
Loading historical data...
Loading historical data...
Loading historical data...
Loading historical data...
Loading historical data...
Loading historical data...

Documentation

Showing up to 5 results
|